Retour au catalogue

FENGYUN 1C DEB

ActifSSO
NORAD 29779·DEBRIS·🇨🇳 China

Lancé May 10, 1999 depuis Taiyuan Satellite Launch Center

Loading…

Prochains Passages (prochaines 24 heures)

TLE

FraisSource: Space-Track

Époque: Sep 13, 2026, 22:36 UTC

1 29779U 99025BV  26256.94180305  .00000239  00000-0  14581-3 0  9996
2 29779  98.6735 264.9473 0064251  99.5247 261.3195 14.13670102 13010

Suivez FENGYUN 1C DEB en temps réel avec AllMySat

Download on the App Store